Вернуться в каталог

DMSP 5D-2 F13 DEB

АктивенSSO
NORAD 40515·DEBRIS·🇺🇸 United States

Запущен Mar 24, 1995 с Vandenberg Space Force Base

Loading…

Ближайшие Пролёты (ближайшие 24 часа)

TLE

СвежийSource: Space-Track

Эпоха: Sep 14, 2026, 14:13 UTC

1 40515U 95015DB  26257.59299155  .00003372  00000-0  10922-2 0  9993
2 40515  98.8248 300.5969 0015387  20.3306 339.8491 14.39617224594505

Отслеживайте DMSP 5D-2 F13 DEB в реальном времени с AllMySat

Download on the App Store